Weather History for Eagle River, WI

Change the Weather History Date:

Sunday, February 2, 2014

  Actual Average Record
Temperature  
Mean Temperature 0 °F -  
Max Temperature 10 °F 27 °F 37 °F (2005)
Min Temperature -10 °F 6 °F -14 °F (2013)
Degree Days  
Heating Degree Days 65    
Moisture  
Dew Point -6 °F    
Average Humidity 67    
Maximum Humidity 79    
Minimum Humidity 46    
Precipitation  
Precipitation 0.00 in - - ()
Sea Level Pressure  
Sea Level Pressure 30.08 in    
Wind  
Wind Speed 6 mph (West)    
Max Wind Speed 10 mph    
Max Gust Speed -    
Visibility 10 miles    
Events Snow    
Averages and records for this station are not official NWS values.
T = Trace of Precipitation, MM = Missing Value Source: NWS Daily Summary

Daily Weather History Graph

Daily Weather History Graph

Search for Another Location

Airport:

Trip Planner

Search our weather history database for the weather conditions in past years. The results will help you decide how hot, cold, wet, or windy it might be!

Date:

Astronomy

Feb. 02, 2014 Rise Set
Actual Time 7:17 AM CST 5:04 PM CST
Civil Twilight 6:46 AM CST 5:36 PM CST
Nautical Twilight 6:10 AM CST 6:11 PM CST
Astronomical Twilight 5:35 AM CST 6:46 PM CST
Moon 8:31 AM CST (2/2) 9:03 PM CST (2/2)
Length of Visible Light 10h 49m
Length of Day
9h 46m
Waxing Crescent, 11% of the Moon is Illuminated
Feb 2
Waxing Crescent
Feb 6
First Quarter
Feb 14
Full
Feb 22
Last Quarter
Mar 1
New

Hourly Weather History & Observations

Time (CST) Temp. Windchill Dew Point Humidity Pressure Visibility Wind Dir Wind Speed Gust Speed Precip Events Conditions
12:15 AM 9.1 °F -1.9 °F 2.1 °F 73% 29.99 in 7.0 mi WNW 6.9 mph - N/A Snow Light Snow
12:35 AM 8.8 °F -2.4 °F 2.1 °F 74% 29.99 in 7.0 mi WNW 6.9 mph - N/A Snow Light Snow
12:55 AM 8.6 °F -3.7 °F 1.8 °F 74% 29.99 in 10.0 mi WNW 8.1 mph - N/A Snow Light Snow
1:15 AM 8.4 °F -2.8 °F 1.8 °F 74% 30.00 in 10.0 mi WNW 6.9 mph - N/A Snow Light Snow
1:35 AM 8.2 °F -5.1 °F 1.4 °F 74% 30.00 in 10.0 mi WNW 9.2 mph - N/A Snow Light Snow
1:55 AM 7.9 °F -4.6 °F 1.0 °F 74% 30.01 in 10.0 mi WNW 8.1 mph - N/A Snow Light Snow
2:15 AM 7.5 °F -5.0 °F 0.5 °F 73% 30.01 in 10.0 mi WNW 8.1 mph - N/A   Overcast
2:35 AM 7.3 °F -4.1 °F 0.5 °F 74% 30.01 in 10.0 mi NW 6.9 mph - N/A Snow Light Snow
2:55 AM 7.0 °F -7.5 °F -0.4 °F 72% 30.01 in 10.0 mi NW 10.4 mph - N/A Snow Light Snow
3:15 AM 6.8 °F -6.9 °F -0.6 °F 72% 30.01 in 7.0 mi NNW 9.2 mph - N/A Snow Light Snow
3:35 AM 6.4 °F -8.2 °F -0.8 °F 72% 30.01 in 10.0 mi NNW 10.4 mph - N/A   Overcast
3:55 AM 5.9 °F -8.0 °F -0.9 °F 73% 30.01 in 10.0 mi WNW 9.2 mph - N/A Snow Light Snow
4:15 AM 5.5 °F -6.3 °F -2.0 °F 71% 30.02 in 10.0 mi NW 6.9 mph - N/A Snow Light Snow
4:35 AM 5.4 °F -5.2 °F -2.0 °F 72% 30.03 in 10.0 mi NW 5.8 mph - N/A Snow Light Snow
4:55 AM 5.0 °F -9.1 °F -2.2 °F 72% 30.03 in 10.0 mi NNW 9.2 mph - N/A   Overcast
5:15 AM 4.6 °F -8.5 °F -2.6 °F 72% 30.03 in 10.0 mi NNW 8.1 mph - N/A   Overcast
5:35 AM 4.3 °F -7.8 °F -2.7 °F 73% 30.03 in 10.0 mi NW 6.9 mph - N/A   Overcast
5:55 AM 4.1 °F -5.1 °F -2.2 °F 75% 30.04 in 4.0 mi WNW 4.6 mph - N/A Snow Light Snow
6:15 AM 3.2 °F -7.8 °F -3.5 °F 74% 30.05 in 10.0 mi WNW 5.8 mph - N/A Snow Light Snow
6:35 AM 2.8 °F -8.2 °F -4.0 °F 73% 30.05 in 10.0 mi NW 5.8 mph - N/A   Overcast
6:55 AM 2.3 °F - -4.2 °F 74% 30.06 in 7.0 mi Calm Calm - N/A Snow Light Snow
7:15 AM 1.4 °F -6.2 °F -4.5 °F 76% 30.07 in 10.0 mi WNW 3.5 mph - N/A Snow Light Snow
7:35 AM 0.3 °F -9.5 °F -5.4 °F 77% 30.08 in 10.0 mi West 4.6 mph - N/A   Overcast
7:55 AM -0.4 °F -10.4 °F -6.0 °F 77% 30.09 in 10.0 mi WNW 4.6 mph - N/A   Overcast
8:15 AM -0.4 °F -12.0 °F -6.0 °F 77% 30.10 in 10.0 mi WNW 5.8 mph - N/A   Overcast
8:35 AM 0.3 °F -11.2 °F -6.0 °F 75% 30.10 in 10.0 mi WNW 5.8 mph - N/A   Mostly Cloudy
8:55 AM 1.0 °F -11.7 °F -6.0 °F 72% 30.11 in 10.0 mi NNW 6.9 mph - N/A   Scattered Clouds
9:15 AM 1.4 °F -13.5 °F -6.2 °F 71% 30.11 in 10.0 mi NW 9.2 mph - N/A   Clear
9:35 AM 1.6 °F -6.0 °F -6.0 °F 71% 30.11 in 10.0 mi NW 3.5 mph - N/A   Scattered Clouds
9:55 AM 2.3 °F -7.2 °F -5.8 °F 69% 30.11 in 10.0 mi NW 4.6 mph - N/A   Clear
10:15 AM 3.0 °F -6.4 °F -5.6 °F 67% 30.12 in 10.0 mi NNW 4.6 mph - N/A   Clear
10:35 AM 4.1 °F -5.1 °F -5.4 °F 65% 30.12 in 10.0 mi West 4.6 mph - N/A   Clear
10:55 AM 4.8 °F - -5.4 °F 63% 30.13 in 10.0 mi Calm Calm - N/A   Clear
11:15 AM 5.4 °F - -5.6 °F 61% 30.13 in 10.0 mi Calm Calm - N/A   Clear
11:35 AM 6.3 °F -0.7 °F -5.8 °F 58% 30.13 in 10.0 mi West 3.5 mph - N/A   Clear
11:55 AM 6.8 °F -3.5 °F -6.3 °F 55% 30.12 in 10.0 mi West 5.8 mph - N/A   Clear
12:15 PM 7.7 °F -2.4 °F -6.0 °F 54% 30.11 in 10.0 mi NW 5.8 mph - N/A   Clear
12:35 PM 8.6 °F - -5.4 °F 53% 30.10 in 10.0 mi Calm Calm - N/A   Clear
12:55 PM 9.0 °F - -5.3 °F 53% 30.09 in 10.0 mi Calm Calm - N/A   Clear
1:15 PM 9.5 °F - -5.3 °F 51% 30.09 in 10.0 mi Calm Calm - N/A   Clear
1:35 PM 10.0 °F 0.4 °F -5.8 °F 49% 30.08 in 10.0 mi West 5.8 mph - N/A   Clear
1:55 PM 9.9 °F 0.2 °F -6.2 °F 48% 30.08 in 10.0 mi West 5.8 mph - N/A   Clear
2:15 PM 10.4 °F - -6.9 °F 46% 30.08 in 10.0 mi Calm Calm - N/A   Clear
2:35 PM 10.4 °F - -6.2 °F 47% 30.08 in 10.0 mi Calm Calm - N/A   Clear
2:55 PM 9.7 °F -3.3 °F -5.6 °F 50% 30.09 in 10.0 mi WSW 9.2 mph - N/A   Clear
3:15 PM 10.0 °F -1.9 °F -5.8 °F 49% 30.10 in 10.0 mi SW 8.1 mph - N/A   Clear
3:35 PM 9.3 °F -4.6 °F -5.4 °F 51% 30.10 in 10.0 mi WSW 10.4 mph - N/A   Clear
3:55 PM 9.5 °F -4.4 °F -6.0 °F 50% 30.10 in 10.0 mi WSW 10.4 mph - N/A   Clear
4:15 PM 8.4 °F -3.9 °F -6.0 °F 52% 30.10 in 10.0 mi West 8.1 mph - N/A   Clear
4:35 PM 8.2 °F -1.8 °F -6.2 °F 52% 30.11 in 10.0 mi WSW 5.8 mph - N/A   Clear
4:55 PM 6.8 °F -4.8 °F -6.2 °F 55% 30.12 in 10.0 mi WSW 6.9 mph - N/A   Clear
5:15 PM 4.5 °F -7.6 °F -6.9 °F 59% 30.13 in 10.0 mi WSW 6.9 mph - N/A   Clear
5:35 PM 2.8 °F -8.2 °F -8.0 °F 61% 30.13 in 10.0 mi WSW 5.8 mph - N/A   Clear
5:55 PM 4.6 °F -7.4 °F -6.5 °F 60% 30.13 in 10.0 mi West 6.9 mph - N/A   Clear
6:15 PM 1.9 °F -9.2 °F -8.0 °F 63% 30.12 in 10.0 mi WSW 5.8 mph - N/A   Clear
6:35 PM 0.5 °F -9.3 °F -7.6 °F 69% 30.13 in 10.0 mi WSW 4.6 mph - N/A   Clear
6:55 PM 0.3 °F -7.5 °F -6.9 °F 72% 30.12 in 10.0 mi WSW 3.5 mph - N/A   Clear
7:15 PM -4.2 °F -14.8 °F -10.5 °F 74% 30.12 in 10.0 mi SW 4.6 mph - N/A   Clear
7:35 PM -2.9 °F -13.3 °F -9.0 °F 75% 30.12 in 10.0 mi WSW 4.6 mph - N/A   Clear
7:55 PM -2.0 °F -12.2 °F -8.7 °F 73% 30.12 in 10.0 mi WSW 4.6 mph - N/A   Clear
8:15 PM -0.6 °F -8.5 °F -8.1 °F 70% 30.11 in 10.0 mi SW 3.5 mph - N/A   Clear
8:35 PM -3.8 °F -14.4 °F -9.6 °F 76% 30.10 in 10.0 mi WSW 4.6 mph - N/A   Clear
8:55 PM -3.8 °F - -10.1 °F 74% 30.10 in 10.0 mi Calm Calm - N/A   Clear
9:15 PM -6.7 °F - -13.0 °F 74% 30.11 in 10.0 mi Calm Calm - N/A   Clear
9:35 PM -6.2 °F - -11.0 °F 79% 30.10 in 10.0 mi Calm Calm - N/A   Clear
9:55 PM -6.5 °F - -11.7 °F 78% 30.10 in 10.0 mi Calm Calm - N/A   Clear
10:15 PM -9.9 °F -21.5 °F -14.8 °F 79% 30.10 in 10.0 mi WSW 4.6 mph - N/A   Clear
10:35 PM -8.9 °F -18.0 °F -14.3 °F 77% 30.10 in 10.0 mi WSW 3.5 mph - N/A   Clear
10:55 PM -7.8 °F - -13.0 °F 78% 30.10 in 10.0 mi Calm Calm - N/A   Clear
11:15 PM -10.3 °F - -15.2 °F 79% 30.12 in 10.0 mi Calm Calm - N/A   Clear
11:35 PM -9.0 °F - -14.4 °F 77% 30.12 in 10.0 mi Calm Calm - N/A   Clear
11:55 PM -8.5 °F - -14.1 °F 77% 30.13 in 10.0 mi Calm Calm - N/A   Clear